Regional Weather Roundup
Issued by NWS

Home | Current Version | Previous Version | Graphics & Text | Print | Product List | Glossary On
Versions: 1 2 3 4 5 6 7 8 9 10 11 12 13 14 15 16 17 18 19 20 21 22 23 24 25 26 27 28 29 30 31 32 33 34 35 36 37 38 39 40 41 42 43 44 45 46 47 48 49 50
000
ASUS43 KDTX 182301
RWRMI
MICHIGAN HOURLY REGIONAL WEATHER ROUNDUP
NATIONAL WEATHER SERVICE DETROIT/PONTIAC MI
600 PM EST SAT NOV 18 2017

NOTE: "FAIR" INDICATES FEW OR NO CLOUDS BELOW 12,000 FEET WITH NO
SIGNIFICANT WEATHER AND/OR OBSTRUCTION TO VISIBILITY.

MIZ047>049-052>055-059>063-066>070-074>076-081>083-190000-
SOUTHEAST LOWER MICHIGAN

CITY           SKY/WX    TMP DP  RH WIND       PRES   REMARKS
ADRIAN         LGT RAIN  41  40  96 N15G31    29.31R FOG
ALMA           LGT SNOW  34  34 100 NW9       29.45R WCI  26
ANN ARBOR      LGT RAIN  42  40  92 NW13G24   29.30R FOG
BAD AXE        MIX PCPN  36  36  98 N16G23    29.37S WCI  26
CARO           LGT SNOW  35  34  96 N15G21    29.38R WCI  25
DETROIT CITY   LGT RAIN  45  32  60 N17G25    29.26S
DETROIT        LGT RAIN  44  43  96 N17G25    29.27R FOG
FLINT          LGT SNOW  34  32  92 N14       29.38R FOG     WCI  25
GROSSE ILE     LGT RAIN  45  43  95 N17G23    29.23R
HILLSDALE      RAIN      37  34  87 N25G33    29.33R WCI  26
HOWELL         LGT SNOW  35  34  97 N10G21    29.36R WCI  27

CITY           SKY/WX    TMP DP  RH WIND       PRES   REMARKS
JACKSON        MIX PCPN  37  35  92 NW14G23   29.37R WCI  28
LAMBERTVILLE   CLOUDY    46  44  93 N12G17    29.27R
LANSING        LGT SNOW  33  33 100 N13G23    29.42R FOG     WCI  24
LAPEER         RAIN      36  35  96 N9G17     29.35R WCI  29
MASON          LGT SNOW  36  33  91 N13G18    29.39R WCI  27
MONROE         LGT RAIN  46  44  92 N12G23    29.25R
MT. CLEMENS    LGT RAIN  42  42 100 N18G25    29.25R FOG
PONTIAC        LGT RAIN  39  39 100 N15       29.30R FOG     WCI  31
PORT HOPE        N/A     39  36  89 N10G21    29.36R WCI  32
PORT HURON     RAIN      41  37  87 N10G20    29.29R
TRI CITIES     LGT SNOW  34  34 100 N13       29.43R VSB 1   WCI  25
MIDLAND        FLURRIES  34  34 100 NW6       29.43R WCI  29
TROY           LGT RAIN  44  41  91 N13G21    29.30S
SAGINAW HB     LGT SNOW  32  32 100 NW10      29.41S WCI  24
$$
MIZ043>046-050>051-056>058-064>065-071>073-077>080-190000-
SOUTHWEST LOWER MICHIGAN

CITY           SKY/WX    TMP DP  RH WIND       PRES   REMARKS
BATTLE CREEK   LGT RAIN  36  34  92 N16G24    29.43R WCI  26
BENTON HARBOR  CLOUDY    43  38  82 N10G23    29.50R
BIG RAPIDS     CLOUDY    37  34  89 N10       29.47S WCI  30
COLDWATER      LGT RAIN  38  38  97 N22G30    29.40R WCI  28
FREMONT        CLOUDY    39  38  99 N16G23    29.50R WCI  30
HOLLAND        CLOUDY    41  37  86 N13G21    29.50R
GRAND RAPIDS   LGT RAIN  38  38 100 N7        29.47R WCI  33
IONIA          FLURRIES  34  33  99 NW8       29.45R WCI  27
KALAMAZOO      LGT RAIN  37  33  85 N17G26    29.45R WCI  27
LUDINGTON      DRIZZLE   40  37  88 N16G24    29.54R WCI  31
MARSHALL       LGT SNOW  35  34  98 NW8G23    29.40R WCI  28
MOUNT PLEASANT RAIN      37  35  93 NW7       29.45R WCI  31
MUSKEGON       LGT RAIN  41  36  82 N14       29.52R
SOUTH HAVEN    CLOUDY    43  39  86 N14G23    29.49R
$$
MIZ016>042-190000-
NORTHERN LOWER MICHIGAN

CITY           SKY/WX    TMP DP  RH WIND       PRES   REMARKS
ALPENA         CLOUDY    38  35  89 N14       29.44S WCI  30
BEAVER ISLAND  CLOUDY    38  34  83 N13G20    29.56R WCI  30
BELLAIRE       CLOUDY    38  37  93 N6        29.52R WCI  34
CADILLAC       LGT RAIN  35  34  99 N6        29.47S WCI  30
CHARLEVOIX     CLOUDY    40  33  75 N20G30    29.55R WCI  31
FRANKFORT      CLOUDY    42  34  74 N10G22    29.55R
GAYLORD        LGT RAIN  34  32  92 VRB6      29.47R WCI  29
GRAYLING       CLOUDY    36  32  87 NW10      29.48R WCI  28
HARBOR SPRINGS CLOUDY    37  35  94 N3        29.52R
MANISTEE       CLOUDY    41  35  79 N12G20    29.54R
OSCODA         MIX PCPN  35  34  96 N7        29.41R WCI  29
PELLSTON       CLOUDY    37  35  92 N13       29.52R WCI  29
ROGERS CITY    CLOUDY    38  32  79 N17G24    29.47S WCI  29
TRAVERSE CITY  CLOUDY    41  34  76 N16       29.51R
$$
MIZ007>008-015-190000-
EASTERN UPPER MICHIGAN

CITY           SKY/WX    TMP DP  RH WIND       PRES   REMARKS
KINROSS        CLOUDY    35  31  85 N10       29.52R WCI  27
MACKINAC ISLAN CLOUDY    38  34  86 N15       29.51R WCI  29
NEWBERRY       CLOUDY    34  33  96 NW6       29.56R WCI  29
S. S. MARIE    CLOUDY    37  31  78 N10       29.52R WCI  30
MUNISING         N/A     37  33  85 N22G30    29.63R WCI  26
$$
MIZ004>006-011>014-085-190000-
CENTRAL UPPER MICHIGAN

CITY           SKY/WX    TMP DP  RH WIND       PRES   REMARKS
MANISTIQUE     CLOUDY    36  28  72 NW9G18    29.58R WCI  29
ESCANABA       CLOUDY    35  27  72 NW12G20   29.64R WCI  27
MENOMINEE      CLOUDY    36  27  69 N13G18    29.66  WCI  27
SAWYER-GWINN   CLOUDY    30  27  86 NW18G25   29.65R WCI  18
$$
MIZ001>003-009>011-084-190000-
WESTERN UPPER MICHIGAN

CITY           SKY/WX    TMP DP  RH WIND       PRES   REMARKS
IRON MOUNTAIN  CLOUDY    32  25  75 N15       29.65R WCI  22
HOUGHTON       CLOUDY    29  21  72 NW12      29.70R WCI  19
COPPER HARBOR    N/A     32  27  81 NE20G26   29.70R WCI  20
IRONWOOD       FLURRIES N/A N/A N/A NW10G23   29.78R
$$

ABBREVIATIONS USED IN REMARKS
   TC - TEMPERATURE IN CELSIUS
  WCI - WIND CHILL INDEX
   HX - HEAT INDEX
  VSB - VISIBILITY




USA.gov is the U.S. government's official web portal to all federal, state and local government web resources and services.